period_start,C,m1,H,J0,J1,J2,J3,J4,J5,JA,JB,JC,JD,JJ,JK,JN,#
2015-06-06 00:03:24,0.02,2.01,0.00,25.69,29.27,31.73,4.70,25.87,1017.20,2027.06,2767.02,2722.02,2966.98,350.10,344.68,34.31,0000 0000 0000 0000 000000
2015-06-06 00:08:25,0.02,2.01,0.00,25.71,29.28,31.75,4.63,25.96,1017.14,2027.09,2766.92,2722.00,2966.47,349.25,344.33,34.34,0000 0000 0000 0000 000000
2015-06-06 00:13:26,0.03,2.01,0.00,25.73,29.29,31.74,4.73,25.91,1017.12,2027.04,2766.19,2721.95,2966.01,349.68,344.58,34.37,0000 0000 0000 0000 000000
2015-06-06 00:18:28,0.03,2.01,0.00,25.76,29.30,31.75,4.72,25.92,1017.11,2027.06,2766.00,2721.51,2966.00,349.71,344.37,34.40,0000 0000 0000 0000 000000
2015-06-06 00:23:29,0.04,2.01,0.00,25.77,29.30,31.76,4.72,25.97,1017.11,2027.08,2765.67,2721.03,2965.83,349.74,344.27,34.42,0000 0000 0000 0000 000000
2015-06-06 00:28:30,0.03,2.01,0.00,25.79,29.30,31.76,4.67,26.04,1017.11,2027.07,2765.07,2721.00,2965.21,349.66,344.12,34.45,0000 0000 0000 0000 000000
2015-06-06 00:33:31,0.00,2.01,0.00,25.82,29.31,31.74,4.71,25.93,1017.12,2027.06,2764.99,2720.97,2965.01,349.75,344.43,34.48,0000 0000 0000 0000 000000
2015-06-06 00:38:32,0.05,2.01,0.00,25.84,29.32,31.75,4.75,25.91,1017.11,2027.03,2764.58,2720.60,2965.00,349.89,344.35,34.51,0000 0000 0000 0000 000000
2015-06-06 00:43:33,0.04,2.01,0.00,25.87,29.32,31.80,4.70,25.98,1017.11,2027.03,2764.04,2720.08,2964.81,350.16,344.43,34.54,0000 0000 0000 0000 000000
2015-06-06 00:48:35,0.02,2.01,0.00,25.91,29.34,31.81,4.70,25.83,1017.08,2027.02,2763.99,2720.00,2964.15,349.89,344.51,34.57,0000 0000 0000 0000 000000
2015-06-06 00:53:36,0.03,2.02,0.00,25.94,29.35,31.83,4.69,25.94,1016.88,2027.00,2763.32,2719.97,2964.00,349.40,343.91,34.60,0000 0000 0000 0000 000000
2015-06-06 00:58:37,0.04,2.02,0.00,25.98,29.36,31.84,4.71,26.07,1016.80,2027.01,2763.00,2719.51,2963.95,349.82,344.06,34.63,0000 0000 0000 0000 000000
2015-06-06 01:03:38,0.04,2.02,0.00,26.01,29.37,31.86,4.76,25.93,1016.69,2027.00,2762.86,2719.09,2963.51,350.63,344.87,34.66,0000 0000 0000 0000 000000
2015-06-06 01:08:39,0.03,2.02,0.00,26.05,29.40,31.88,4.73,25.92,1016.65,2027.00,2762.16,2719.00,2963.03,349.95,344.06,34.69,0000 0000 0000 0000 000000
2015-06-06 01:13:41,0.01,2.02,0.00,26.08,29.40,31.88,4.72,25.93,1016.63,2027.00,2762.00,2718.93,2962.99,350.05,343.94,34.72,0000 0000 0000 0000 000000
2015-06-06 01:18:42,0.10,2.02,0.00,26.11,29.42,31.88,4.66,25.86,1016.67,2027.00,2761.39,2718.19,2962.37,349.65,343.83,34.75,0000 0000 0000 0000 000000
2015-06-06 01:23:43,0.01,2.02,0.00,26.14,29.44,31.86,4.74,25.94,1016.73,2026.98,2761.03,2718.00,2962.00,350.12,344.13,34.78,0000 0000 0000 0000 000000
2015-06-06 01:28:45,-0.00,2.02,0.00,26.17,29.45,31.86,4.70,25.92,1016.65,2026.93,2760.99,2717.96,2961.96,349.97,343.75,34.81,0000 0000 0000 0000 000000
2015-06-06 01:33:46,-0.09,2.02,0.00,26.21,29.47,31.94,4.67,26.04,1016.63,2026.36,2760.99,2717.94,2961.40,349.81,343.80,34.83,0000 0000 0000 0000 000000
2015-06-06 01:38:47,0.03,2.02,0.00,26.24,29.50,31.96,4.68,25.99,1016.63,2026.07,2760.89,2717.40,2961.02,349.98,343.81,34.86,0000 0000 0000 0000 000000
2015-06-06 01:43:49,0.02,2.02,0.00,26.28,29.51,31.96,4.64,26.02,1016.62,2026.01,2760.26,2717.02,2961.00,349.35,343.29,34.89,0000 0000 0000 0000 000000
2015-06-06 01:48:50,0.00,2.02,0.00,26.32,29.53,31.97,4.69,26.02,1016.62,2026.00,2760.01,2717.00,2960.93,349.89,343.77,34.92,0000 0000 0000 0000 000000
2015-06-06 01:53:51,0.02,2.02,0.00,26.36,29.55,31.98,4.75,25.99,1016.63,2026.00,2759.97,2716.96,2960.46,350.51,344.30,34.95,0000 0000 0000 0000 000000
2015-06-06 01:58:53,0.10,1.62,0.00,26.41,29.58,32.00,4.15,22.66,1016.63,2026.44,2937.17,2852.89,3107.57,309.08,302.12,0.00,0000 0000 0000 0000 000002
2015-06-06 02:03:54,0.15,0.00,0.00,26.45,29.60,32.01,4.66,26.06,1016.63,2027.76,3517.68,3300.19,3592.30,349.91,343.55,0.01,0000 0000 0000 0000 000000
2015-06-06 02:08:55,0.13,0.00,0.00,26.48,29.62,32.02,4.69,26.08,1016.62,2027.63,3516.00,3299.88,3591.12,349.62,343.28,0.04,0000 0000 0000 0000 000000
2015-06-06 02:13:56,0.11,0.00,0.00,26.53,29.65,32.06,4.67,26.03,1016.62,2027.12,3515.15,3299.08,3589.88,349.84,343.66,0.07,0000 0000 0000 0000 000000
2015-06-06 02:18:58,0.08,0.00,0.00,26.57,29.67,32.09,4.72,26.00,1016.62,2027.00,3514.75,3298.99,3589.05,350.64,344.17,0.10,0000 0000 0000 0000 000000
2015-06-06 02:23:59,0.04,0.00,0.00,26.62,29.70,32.10,4.71,26.01,1016.62,2027.00,3514.03,3298.56,3588.66,350.30,343.69,0.13,0000 0000 0000 0000 000000
2015-06-06 02:29:00,0.04,0.00,0.00,26.67,29.73,32.13,4.64,26.02,1016.62,2027.00,3513.68,3298.03,3588.03,349.67,343.11,0.16,0000 0000 0000 0000 000000
2015-06-06 02:34:02,0.04,0.00,0.00,26.71,29.76,32.16,4.71,26.07,1016.62,2027.00,3512.78,3297.90,3587.76,349.89,343.06,0.19,0000 0000 0000 0000 000000
2015-06-06 02:39:03,0.09,0.00,0.00,26.76,29.78,32.20,4.67,25.98,1016.63,2027.00,3511.74,3297.05,3586.74,349.76,343.15,0.22,0000 0000 0000 0000 000000
2015-06-06 02:44:04,0.15,0.01,0.00,26.80,29.81,32.22,4.67,25.91,1016.62,2026.99,3510.03,3295.86,3585.20,350.12,343.40,0.24,0000 0000 0000 0000 000000
2015-06-06 02:49:05,0.25,0.01,0.00,26.85,29.84,32.24,4.68,25.91,1016.62,2026.97,3507.03,3293.54,3582.89,350.40,343.41,0.27,0000 0000 0000 0000 000000
2015-06-06 02:54:06,0.22,0.02,0.00,26.90,29.87,32.27,4.69,25.94,1016.62,2026.85,3503.75,3291.05,3580.16,349.97,343.22,0.30,0000 0000 0000 0000 000000
2015-06-06 02:59:08,0.16,0.03,0.00,26.94,29.90,32.30,4.71,25.97,1016.62,2026.40,3500.60,3288.68,3577.57,349.86,342.98,0.33,0000 0000 0000 0000 000000
2015-06-06 03:04:09,0.22,0.03,0.00,26.99,29.93,32.33,4.71,25.84,1016.62,2026.13,3497.43,3286.27,3574.99,349.96,342.78,0.36,0000 0000 0000 0000 000000
2015-06-06 03:09:10,0.18,0.04,0.00,27.03,29.96,32.37,4.69,25.80,1016.62,2026.03,3494.72,3284.26,3572.71,349.76,342.82,0.39,0000 0000 0000 0000 000000
2015-06-06 03:14:11,0.16,0.04,0.00,27.08,30.00,32.40,4.67,25.85,1016.62,2026.00,3492.54,3282.55,3570.89,350.06,343.23,0.42,0000 0000 0000 0000 000000
2015-06-06 03:19:13,0.10,0.05,0.00,27.13,30.03,32.45,4.59,25.87,1016.62,2025.99,3491.25,3281.47,3569.66,349.33,342.25,0.45,0000 0000 0000 0000 000000
2015-06-06 03:24:14,0.01,0.05,0.00,27.18,30.07,32.49,4.71,25.92,1016.62,2025.95,3490.78,3281.00,3569.00,349.47,342.28,0.48,0000 0000 0000 0000 000000
2015-06-06 03:29:15,-0.03,0.05,0.00,27.23,30.11,32.51,4.68,25.88,1016.62,2025.64,3490.11,3280.78,3568.53,349.84,342.61,0.51,0000 0000 0000 0000 000000
2015-06-06 03:34:17,-0.03,0.05,0.00,27.26,30.14,32.55,4.62,25.88,1016.62,2025.09,3489.83,3280.09,3568.01,349.57,342.31,0.54,0000 0000 0000 0000 000000
2015-06-06 03:39:18,0.03,0.05,0.00,27.30,30.18,32.58,4.70,25.81,1016.61,2025.00,3489.04,3279.93,3567.60,349.34,342.07,0.57,0000 0000 0000 0000 000000
2015-06-06 03:44:20,0.07,0.05,0.00,27.33,30.21,32.62,4.68,25.93,1016.58,2025.00,3488.30,3279.16,3566.95,350.11,342.77,0.60,0000 0000 0000 0000 000000
2015-06-06 03:49:21,0.02,0.05,0.00,27.38,30.25,32.69,4.69,25.91,1016.49,2024.98,3487.98,3278.96,3566.24,350.12,342.85,0.63,0000 0000 0000 0000 000000
2015-06-06 03:54:22,0.02,0.05,0.00,27.41,30.29,32.74,4.64,25.84,1016.53,2024.79,3487.27,3278.23,3565.88,349.72,342.23,0.65,0000 0000 0000 0000 000000
2015-06-06 03:59:23,-0.04,0.05,0.00,27.45,30.32,32.77,4.74,26.02,1016.60,2024.20,3486.54,3277.96,3565.09,350.82,343.33,0.68,0000 0000 0000 0000 000000
2015-06-06 04:04:25,0.03,0.05,0.00,27.49,30.36,32.81,4.71,25.92,1016.62,2024.03,3486.01,3277.36,3564.87,349.95,342.46,0.71,0000 0000 0000 0000 000000
2015-06-06 04:09:26,0.04,0.05,0.00,27.52,30.40,32.85,4.69,25.87,1016.62,2024.00,3485.31,3277.01,3564.14,350.32,342.86,0.74,0000 0000 0000 0000 000000
2015-06-06 04:14:27,0.02,0.05,0.00,27.56,30.43,32.86,4.71,25.93,1016.62,2024.00,3484.97,3276.73,3563.94,349.84,342.28,0.77,0000 0000 0000 0000 000000
2015-06-06 04:19:29,0.06,0.05,0.00,27.59,30.47,32.90,4.68,25.88,1016.62,2023.98,3484.30,3276.06,3563.28,350.37,342.69,0.80,0000 0000 0000 0000 000000
2015-06-06 04:24:30,0.00,0.05,0.00,27.61,30.51,32.95,4.64,25.86,1016.57,2023.96,3483.98,3275.99,3562.99,349.79,342.14,0.83,0000 0000 0000 0000 000000
2015-06-06 04:29:31,0.04,0.05,0.00,27.65,30.54,33.00,4.63,25.81,1016.35,2023.72,3483.36,3275.46,3562.29,349.46,341.71,0.86,0000 0000 0000 0000 000000
2015-06-06 04:34:32,-0.08,0.05,0.00,27.69,30.58,33.05,4.69,25.89,1016.23,2023.15,3482.99,3275.01,3561.99,349.68,341.83,0.89,0000 0000 0000 0000 000000
2015-06-06 04:39:33,0.05,0.05,0.00,27.71,30.61,33.09,4.75,25.93,1016.31,2023.01,3482.39,3274.76,3561.27,350.24,342.40,0.92,0000 0000 0000 0000 000000
2015-06-06 04:44:35,0.03,0.06,0.00,27.74,30.65,33.12,4.58,25.75,1016.43,2023.00,3481.91,3274.06,3560.92,349.55,341.78,0.95,0000 0000 0000 0000 000000
2015-06-06 04:49:36,0.05,0.06,0.00,27.77,30.69,33.17,4.71,25.74,1016.44,2022.99,3481.09,3273.91,3560.19,350.37,342.19,0.98,0000 0000 0000 0000 000000
2015-06-06 04:54:37,0.05,0.06,0.00,27.80,30.72,33.20,4.61,25.77,1016.17,2022.97,3480.48,3273.18,3559.99,350.22,342.19,1.01,0000 0000 0000 0000 000000
2015-06-06 04:59:38,-0.04,0.06,0.00,27.82,30.76,33.23,4.67,25.94,1016.18,2022.62,3479.79,3272.84,3559.36,349.73,341.73,1.04,0000 0000 0000 0000 000000
2015-06-06 05:04:39,0.03,0.06,0.00,27.85,30.79,33.26,4.70,25.78,1016.16,2022.30,3479.11,3272.18,3558.97,350.25,342.17,1.06,0000 0000 0000 0000 000000
2015-06-06 05:09:40,0.00,0.06,0.00,27.86,30.83,33.30,4.68,25.72,1016.17,2022.11,3478.75,3272.00,3558.32,350.27,342.24,1.09,0000 0000 0000 0000 000000
2015-06-06 05:14:42,0.04,0.06,0.00,27.89,30.86,33.36,4.62,25.73,1016.18,2022.01,3478.00,3271.42,3557.91,349.60,341.54,1.12,0000 0000 0000 0000 000000
2015-06-06 05:19:43,0.04,0.06,0.00,27.91,30.90,33.39,4.66,25.76,1016.17,2022.00,3477.17,3271.00,3557.13,349.75,341.68,1.15,0000 0000 0000 0000 000000
2015-06-06 05:24:44,0.07,0.06,0.00,27.93,30.93,33.43,4.58,25.72,1016.21,2022.00,3476.50,3270.44,3556.69,349.71,341.55,1.18,0000 0000 0000 0000 000000
2015-06-06 05:29:46,0.03,0.06,0.00,27.96,30.96,33.45,4.62,25.73,1016.19,2021.96,3475.50,3269.92,3555.99,349.76,341.70,1.21,0000 0000 0000 0000 000000
2015-06-06 05:34:47,0.03,0.07,0.00,27.98,31.00,33.49,4.74,25.78,1016.15,2021.85,3474.97,3269.20,3555.26,350.29,342.08,1.24,0000 0000 0000 0000 000000
2015-06-06 05:39:48,-0.04,0.07,0.00,28.01,31.03,33.53,4.69,25.77,1016.15,2021.40,3474.20,3268.85,3554.75,350.16,341.91,1.27,0000 0000 0000 0000 000000
2015-06-06 05:44:49,0.04,0.07,0.00,28.03,31.06,33.55,4.69,25.79,1016.14,2021.08,3473.46,3268.12,3554.06,349.90,341.51,1.30,0000 0000 0000 0000 000000
2015-06-06 05:49:50,0.03,0.07,0.00,28.05,31.09,33.58,4.61,25.68,1016.15,2021.02,3472.69,3267.92,3553.68,349.62,341.30,1.33,0000 0000 0000 0000 000000
2015-06-06 05:54:52,0.06,0.07,0.00,28.07,31.12,33.61,4.67,25.82,1016.15,2021.00,3472.03,3267.17,3553.04,349.84,341.57,1.36,0000 0000 0000 0000 000000
2015-06-06 05:59:53,0.06,0.07,0.00,28.10,31.16,33.65,4.75,25.87,1016.16,2021.00,3471.24,3266.79,3552.36,350.03,341.68,1.39,0000 0000 0000 0000 000000
2015-06-06 06:04:54,0.03,0.07,0.00,28.13,31.19,33.67,4.62,25.80,1016.14,2020.98,3470.78,3266.14,3552.00,349.73,341.35,1.42,0000 0000 0000 0000 000000
2015-06-06 06:09:55,0.03,0.07,0.00,28.15,31.22,33.71,4.67,25.77,1016.14,2020.93,3470.03,3265.95,3551.53,350.04,341.69,1.45,0000 0000 0000 0000 000000
2015-06-06 06:14:56,0.03,0.07,0.00,28.18,31.25,33.74,4.66,25.74,1016.14,2020.71,3469.29,3265.22,3550.82,350.15,341.68,1.47,0000 0000 0000 0000 000000
2015-06-06 06:19:58,-0.05,0.07,0.00,28.20,31.28,33.77,4.67,25.77,1016.13,2020.22,3468.70,3264.94,3550.04,350.01,341.56,1.50,0000 0000 0000 0000 000000
2015-06-06 06:24:59,0.04,0.07,0.00,28.22,31.31,33.79,4.64,25.71,1016.14,2020.05,3468.02,3264.23,3549.68,349.55,341.10,1.53,0000 0000 0000 0000 000000
2015-06-06 06:30:00,0.03,0.07,0.00,28.23,31.34,33.84,4.63,25.74,1016.14,2020.00,3467.28,3263.97,3549.02,350.14,341.71,1.56,0000 0000 0000 0000 000000
2015-06-06 06:35:02,0.08,0.08,0.00,28.25,31.37,33.87,4.66,25.73,1016.14,2020.00,3466.58,3263.28,3548.32,350.01,341.41,1.59,0000 0000 0000 0000 000000
2015-06-06 06:40:03,0.01,0.08,0.00,28.26,31.39,33.90,4.65,25.78,1016.14,2019.99,3465.87,3263.00,3547.88,349.91,341.33,1.62,0000 0000 0000 0000 000000
2015-06-06 06:45:04,0.07,0.08,0.00,28.27,31.41,33.93,4.70,25.79,1016.13,2019.95,3465.04,3262.42,3547.07,350.43,341.72,1.65,0000 0000 0000 0000 000000
2015-06-06 06:50:05,0.01,0.08,0.00,28.29,31.45,33.97,4.67,25.76,1016.13,2019.79,3464.31,3262.00,3546.62,349.83,341.36,1.68,0000 0000 0000 0000 000000
2015-06-06 06:55:07,-0.02,0.08,0.00,28.31,31.47,33.99,4.62,25.74,1016.13,2019.26,3463.65,3261.40,3546.01,349.42,340.85,1.71,0000 0000 0000 0000 000000
2015-06-06 07:00:08,0.00,0.08,0.00,28.32,31.50,34.02,4.69,25.85,1016.13,2019.08,3462.94,3261.01,3545.49,350.26,341.51,1.74,0000 0000 0000 0000 000000
2015-06-06 07:05:09,0.06,0.08,0.00,28.34,31.52,34.05,4.67,25.74,1016.13,2019.05,3462.08,3260.60,3545.00,350.41,341.55,1.77,0000 0000 0000 0000 000000
2015-06-06 07:10:10,0.05,0.08,0.00,28.35,31.55,34.08,4.67,25.75,1016.13,2019.00,3461.43,3260.01,3544.34,350.10,341.45,1.80,0000 0000 0000 0000 000000
2015-06-06 07:15:11,0.04,0.08,0.00,28.37,31.57,34.09,4.58,25.73,1016.13,2019.00,3460.75,3259.59,3543.97,349.53,340.91,1.83,0000 0000 0000 0000 000000
2015-06-06 07:20:12,0.04,0.09,0.00,28.37,31.60,34.11,4.66,25.68,1016.13,2019.00,3460.00,3259.02,3543.30,349.64,340.98,1.86,0000 0000 0000 0000 000000
2015-06-06 07:25:14,0.06,0.09,0.00,28.40,31.62,34.14,4.66,25.71,1016.13,2018.98,3459.20,3258.59,3542.87,350.27,341.35,1.88,0000 0000 0000 0000 000000
2015-06-06 07:30:15,0.04,0.09,0.00,28.41,31.65,34.16,4.67,25.76,1016.13,2018.97,3458.74,3258.04,3542.14,350.08,341.38,1.91,0000 0000 0000 0000 000000
2015-06-06 07:35:16,-0.00,0.09,0.00,28.42,31.67,34.18,4.68,25.68,1016.13,2018.82,3458.02,3257.80,3541.84,350.02,341.27,1.94,0000 0000 0000 0000 000000
2015-06-06 07:40:17,-0.03,0.09,0.00,28.44,31.70,34.20,4.68,25.63,1016.11,2018.22,3457.25,3257.07,3541.07,350.09,341.43,1.97,0000 0000 0000 0000 000000
2015-06-06 07:45:19,0.02,0.09,0.00,28.45,31.72,34.21,4.66,25.77,1016.07,2018.08,3456.71,3256.91,3540.79,349.73,341.10,2.00,0000 0000 0000 0000 000000
2015-06-06 07:50:20,0.05,0.09,0.00,28.46,31.74,34.25,4.63,25.71,1015.96,2018.01,3456.02,3256.12,3540.04,349.35,340.49,2.03,0000 0000 0000 0000 000000
2015-06-06 07:55:21,0.02,0.09,0.00,28.47,31.76,34.27,4.64,25.69,1015.92,2018.01,3455.56,3256.00,3539.87,349.81,340.96,2.06,0000 0000 0000 0000 000000
2015-06-06 08:00:22,0.06,0.09,0.00,28.48,31.78,34.29,4.66,25.77,1015.97,2018.00,3454.91,3255.42,3539.07,349.96,341.19,2.09,0000 0000 0000 0000 000000
2015-06-06 08:05:23,0.02,0.09,0.00,28.50,31.80,34.31,4.68,25.63,1015.98,2018.00,3454.11,3255.01,3538.97,350.19,341.09,2.12,0000 0000 0000 0000 000000
2015-06-06 08:10:24,0.05,0.09,0.00,28.50,31.82,34.33,4.69,25.70,1015.99,2018.00,3453.64,3254.76,3538.26,350.10,341.17,2.15,0000 0000 0000 0000 000000
2015-06-06 08:15:26,0.03,0.10,0.00,28.52,31.85,34.35,4.69,25.74,1016.00,2018.00,3453.01,3254.07,3537.98,350.00,341.02,2.18,0000 0000 0000 0000 000000
2015-06-06 08:20:27,0.04,0.10,0.00,28.53,31.86,34.37,4.63,25.63,1015.95,2017.99,3452.26,3253.99,3537.36,349.73,340.98,2.21,0000 0000 0000 0000 000000
2015-06-06 08:25:28,0.03,0.10,0.00,28.55,31.88,34.39,4.65,25.63,1015.91,2017.96,3451.97,3253.48,3537.02,349.91,340.98,2.24,0000 0000 0000 0000 000000
2015-06-06 08:30:29,0.01,0.10,0.00,28.56,31.90,34.41,4.69,25.72,1015.72,2017.83,3451.37,3253.01,3536.78,350.03,341.10,2.27,0000 0000 0000 0000 000000
2015-06-06 08:35:30,-0.01,0.10,0.00,28.57,31.92,34.42,4.64,25.68,1015.66,2017.63,3451.00,3252.97,3536.10,349.89,340.87,2.29,0000 0000 0000 0000 000000
2015-06-06 08:40:32,-0.02,0.10,0.00,28.59,31.94,34.44,4.63,25.64,1015.67,2017.35,3450.72,3252.62,3535.99,349.56,340.65,2.32,0000 0000 0000 0000 000000
2015-06-06 08:45:33,0.02,0.10,0.00,28.59,31.96,34.46,4.63,25.59,1015.65,2017.09,3450.03,3252.03,3535.58,349.99,340.86,2.35,0000 0000 0000 0000 000000
2015-06-06 08:50:34,0.02,0.10,0.00,28.61,31.97,34.48,4.63,25.67,1015.66,2017.01,3449.55,3251.98,3535.03,349.84,340.52,2.38,0000 0000 0000 0000 000000
2015-06-06 08:55:36,0.03,0.10,0.00,28.62,32.00,34.48,4.61,25.73,1015.66,2017.01,3449.03,3251.60,3534.95,349.87,340.60,2.41,0000 0000 0000 0000 000000
2015-06-06 09:00:37,0.06,0.10,0.00,28.62,32.01,34.48,4.65,25.75,1015.66,2017.00,3448.41,3251.02,3534.12,349.49,340.58,2.44,0000 0000 0000 0000 000000
2015-06-06 09:05:38,0.00,0.10,0.00,28.65,32.02,34.51,4.64,25.62,1015.66,2017.00,3448.02,3250.97,3534.00,349.45,340.33,2.47,0000 0000 0000 0000 000000
2015-06-06 09:10:39,0.04,0.10,0.00,28.65,32.05,34.54,4.73,25.69,1015.66,2017.00,3447.88,3250.65,3533.83,350.59,341.38,2.50,0000 0000 0000 0000 000000
2015-06-06 09:15:40,0.05,0.10,0.00,28.65,32.06,34.54,4.65,25.63,1015.65,2017.00,3447.17,3250.07,3533.19,349.77,340.55,2.53,0000 0000 0000 0000 000000
2015-06-06 09:20:42,0.02,0.11,0.00,28.67,32.07,34.56,4.60,25.64,1015.65,2017.00,3446.58,3249.96,3532.96,349.82,340.73,2.56,0000 0000 0000 0000 000000
2015-06-06 09:25:43,0.06,0.11,0.00,28.68,32.10,34.59,4.67,25.67,1015.65,2016.98,3446.01,3249.40,3532.41,349.97,340.88,2.59,0000 0000 0000 0000 000000
2015-06-06 09:30:44,0.02,0.11,0.00,28.69,32.11,34.61,4.68,25.72,1015.64,2016.95,3445.54,3249.01,3532.00,349.72,340.45,2.62,0000 0000 0000 0000 000000
2015-06-06 09:35:45,0.01,0.11,0.00,28.69,32.12,34.62,4.72,25.67,1015.64,2016.94,3445.01,3248.98,3531.84,350.28,341.03,2.65,0000 0000 0000 0000 000000
2015-06-06 09:40:47,0.07,0.11,0.00,28.69,32.14,34.63,4.69,25.63,1015.64,2016.90,3444.54,3248.40,3531.10,350.19,341.06,2.68,0000 0000 0000 0000 000000
2015-06-06 09:45:48,-0.03,0.11,0.00,28.70,32.15,34.64,4.65,25.65,1015.64,2016.67,3444.00,3248.01,3530.98,349.92,340.51,2.70,0000 0000 0000 0000 000000
2015-06-06 09:50:49,0.01,0.11,0.00,28.70,32.17,34.65,4.69,25.65,1015.64,2016.38,3443.42,3247.91,3530.42,350.11,340.93,2.73,0000 0000 0000 0000 000000
2015-06-06 09:55:50,0.01,0.11,0.00,28.72,32.18,34.68,4.68,25.71,1015.64,2016.11,3442.95,3247.18,3530.00,350.01,340.72,2.76,0000 0000 0000 0000 000000
2015-06-06 10:00:52,0.03,0.11,0.00,28.72,32.20,34.68,4.66,25.63,1015.63,2016.07,3442.15,3247.00,3529.79,349.82,340.76,2.79,0000 0000 0000 0000 000000
2015-06-06 10:05:53,0.03,0.11,0.00,28.72,32.21,34.70,4.66,25.64,1015.63,2016.11,3441.92,3246.90,3529.20,350.39,341.14,2.82,0000 0000 0000 0000 000000
2015-06-06 10:10:54,0.04,0.11,0.00,28.73,32.22,34.71,4.67,25.59,1015.62,2016.03,3441.15,3246.22,3528.98,349.75,340.27,2.85,0000 0000 0000 0000 000000
2015-06-06 10:15:55,0.01,0.11,0.00,28.75,32.24,34.71,4.65,25.72,1015.62,2016.00,3440.96,3246.00,3528.50,350.03,340.76,2.88,0000 0000 0000 0000 000000
2015-06-06 10:20:57,0.04,0.11,0.00,28.75,32.25,34.73,4.63,25.61,1015.61,2016.01,3440.18,3245.90,3528.03,349.86,340.59,2.91,0000 0000 0000 0000 000000
2015-06-06 10:25:58,0.03,0.12,0.00,28.75,32.26,34.74,4.64,25.68,1015.55,2016.00,3439.99,3245.33,3527.97,349.54,340.45,2.94,0000 0000 0000 0000 000000
2015-06-06 10:30:59,0.04,0.12,0.00,28.76,32.27,34.75,4.72,25.63,1015.56,2016.00,3439.55,3245.02,3527.46,350.45,341.15,2.97,0000 0000 0000 0000 000000
2015-06-06 10:36:00,0.01,0.12,0.00,28.77,32.28,34.77,4.58,25.67,1015.42,2016.00,3439.02,3244.98,3527.02,349.45,340.18,3.00,0000 0000 0000 0000 000000
2015-06-06 10:41:02,0.06,0.12,0.00,28.77,32.30,34.77,4.68,25.63,1015.37,2016.00,3438.46,3244.45,3526.75,350.12,340.79,3.03,0000 0000 0000 0000 000000
2015-06-06 10:46:03,0.03,0.12,0.00,28.77,32.31,34.80,4.53,25.61,1015.29,2016.00,3437.92,3244.02,3526.05,349.36,340.11,3.06,0000 0000 0000 0000 000000
2015-06-06 10:51:05,0.04,0.12,0.00,28.78,32.32,34.81,4.62,25.73,1015.27,2015.99,3437.10,3243.81,3525.85,349.45,340.05,3.09,0000 0000 0000 0000 000000
2015-06-06 10:56:06,0.06,0.12,0.00,28.77,32.32,34.82,4.66,25.63,1015.23,2015.97,3436.63,3243.07,3525.08,350.08,340.58,3.11,0000 0000 0000 0000 000000
2015-06-06 11:01:07,0.01,0.12,0.00,28.79,32.35,34.83,4.65,25.71,1015.20,2015.95,3436.01,3242.99,3524.96,349.47,340.30,3.14,0000 0000 0000 0000 000000
2015-06-06 11:06:08,0.04,0.12,0.00,28.80,32.35,34.84,4.64,25.63,1015.16,2015.96,3435.69,3242.79,3524.50,350.11,340.47,3.17,0000 0000 0000 0000 000000
2015-06-06 11:11:09,0.04,0.13,0.00,28.80,32.36,34.84,4.68,25.66,1015.16,2015.90,3435.04,3242.21,3524.03,349.89,340.40,3.20,0000 0000 0000 0000 000000
2015-06-06 11:16:11,-0.00,0.13,0.00,28.80,32.37,34.86,4.71,25.70,1015.16,2015.80,3434.77,3242.00,3523.98,350.06,340.44,3.23,0000 0000 0000 0000 000000
2015-06-06 11:21:12,-0.03,0.13,0.00,28.80,32.37,34.86,4.64,25.63,1015.16,2015.40,3434.07,3241.97,3523.38,349.70,340.33,3.26,0000 0000 0000 0000 000000
2015-06-06 11:26:13,0.03,0.13,0.00,28.80,32.39,34.86,4.70,25.63,1015.16,2015.32,3433.94,3241.54,3523.04,350.08,340.42,3.29,0000 0000 0000 0000 000000
2015-06-06 11:31:15,0.02,0.13,0.00,28.81,32.40,34.87,4.69,25.57,1015.16,2015.36,3433.37,3241.13,3523.00,349.99,340.50,3.32,0000 0000 0000 0000 000000
2015-06-06 11:36:16,-0.01,0.13,0.00,28.81,32.40,34.89,4.64,25.62,1015.15,2015.11,3433.00,3241.00,3522.73,349.78,340.42,3.35,0000 0000 0000 0000 000000
2015-06-06 11:41:18,0.02,0.13,0.00,28.80,32.41,34.90,4.61,25.72,1015.15,2015.05,3432.63,3240.95,3522.08,350.11,340.43,3.38,0000 0000 0000 0000 000000
2015-06-06 11:46:19,0.03,0.13,0.00,28.80,32.42,34.91,4.69,25.72,1015.14,2015.02,3432.05,3240.45,3521.99,349.88,340.29,3.41,0000 0000 0000 0000 000000
2015-06-06 11:51:21,0.02,0.13,0.00,28.80,32.42,34.92,4.59,25.76,1015.13,2015.00,3431.92,3240.02,3521.64,349.58,340.00,3.44,0000 0000 0000 0000 000000
2015-06-06 11:56:22,0.03,0.13,0.00,28.80,32.42,34.92,4.70,25.68,1015.06,2015.00,3431.13,3239.99,3521.07,350.28,340.71,3.47,0000 0000 0000 0000 000000
2015-06-06 12:01:23,0.01,0.13,0.00,28.79,32.43,34.93,4.70,25.64,1014.90,2014.99,3430.86,3239.87,3520.99,350.36,340.73,3.50,0000 0000 0000 0000 000000
2015-06-06 12:06:24,0.05,0.13,0.00,28.78,32.44,34.94,4.67,25.69,1014.72,2015.00,3430.15,3239.40,3520.97,349.84,340.23,3.52,0000 0000 0000 0000 000000
2015-06-06 12:11:26,0.01,0.13,0.00,28.78,32.45,34.94,4.65,25.71,1014.68,2015.00,3429.97,3239.04,3520.65,349.60,340.01,3.55,0000 0000 0000 0000 000000
2015-06-06 12:16:26,0.03,0.13,0.00,28.78,32.45,34.94,4.65,25.65,1014.68,2015.00,3429.35,3238.98,3520.04,350.16,340.38,3.58,0000 0000 0000 0000 000000
2015-06-06 12:21:28,0.01,0.13,0.00,28.79,32.45,34.95,4.72,25.60,1014.68,2015.00,3428.98,3238.76,3519.99,350.19,340.82,3.61,0000 0000 0000 0000 000000
2015-06-06 12:26:29,0.06,0.14,0.00,28.77,32.45,34.95,4.60,25.63,1014.70,2014.98,3428.23,3238.06,3519.44,349.65,339.93,3.64,0000 0000 0000 0000 000000
2015-06-06 12:31:31,0.01,0.14,0.00,28.77,32.45,34.94,4.68,25.76,1014.72,2014.98,3427.93,3237.98,3519.01,349.53,339.86,3.67,0000 0000 0000 0000 000000
2015-06-06 12:36:32,0.04,0.14,0.00,28.77,32.45,34.95,4.66,25.70,1014.81,2014.99,3427.18,3237.68,3518.98,349.65,340.09,3.70,0000 0000 0000 0000 000000
2015-06-06 12:41:33,0.03,0.14,0.00,28.77,32.46,34.95,4.70,25.63,1014.81,2014.97,3426.95,3237.16,3518.62,350.19,340.27,3.73,0000 0000 0000 0000 000000
2015-06-06 12:46:34,0.03,0.14,0.00,28.77,32.47,34.95,4.66,25.56,1014.74,2014.97,3426.25,3237.00,3518.03,349.48,339.79,3.76,0000 0000 0000 0000 000000
2015-06-06 12:51:35,0.02,0.14,0.00,28.77,32.47,34.95,4.65,25.61,1014.69,2014.96,3425.86,3236.76,3517.93,350.03,340.52,3.79,0000 0000 0000 0000 000000
2015-06-06 12:56:37,0.06,0.14,0.00,28.77,32.47,34.96,4.66,25.68,1014.68,2014.96,3425.10,3236.12,3517.22,349.90,340.45,3.82,0000 0000 0000 0000 000000
2015-06-06 13:01:38,0.02,0.14,0.00,28.76,32.47,34.97,4.67,25.70,1014.67,2014.93,3424.60,3235.97,3516.97,349.89,340.47,3.85,0000 0000 0000 0000 000000
2015-06-06 13:06:39,0.06,0.14,0.00,28.76,32.47,34.98,4.69,25.55,1014.66,2014.93,3424.02,3235.56,3516.46,349.95,340.42,3.88,0000 0000 0000 0000 000000